Wind_Speed
24 25 25 26 28 29 31 35 37 38 38 37 38 38 45 48 51 50 49 50 51 56 55 51 46 47 49 51 51 53 56 59 62 64 66 68 68 69
22 24 27 28 32 34 36 37 38 41 41 42 46 45 47 52 56 56 57 55 52 57 58 51 46 48 52 53 53 55 55 61 62 65 68 70 70 71
22 24 26 28 29 30 31 34 36 40 42 42 46 51 47 54 55 51 53 52 58 56 55 56 53 50 53 54 58 55 59 64 63 66 69 71 71 71
27 29 30 32 33 35 36 38 43 44 47 46 50 50 53 53 53 56 55 53 56 60 63 57 52 55 54 60 62 57 66 65 66 68 69 71 72 77
28 33 37 39 41 40 42 44 44 45 50 52 50 53 54 55 59 55 55 55 57 59 62 63 59 60 55 61 59 60 65 67 65 71 77 75 75 80
32 32 35 39 40 41 45 46 47 49 51 51 54 55 53 50 54 52 52 53 48 53 60 62 63 62 57 62 65 69 75 70 74 75 72 76 80 84
32 33 36 39 42 44 47 49 49 50 50 50 55 56 54 56 57 52 50 53 55 58 60 65 66 59 59 68 69 75 77 78 79 79 81 84 84 85
39 38 40 43 45 48 50 51 53 55 53 57 59 54 54 53 54 55 54 57 61 60 62 65 75 75 63 67 77 83 84 79 80 86 88 86 86 89
49 50 48 46 46 47 51 54 55 56 57 59 62 56 57 56 58 62 58 59 66 62 69 74 72 65 68 75 84 89 84 84 86 90 90 86 89 90
53 51 49 49 50 49 49 51 55 57 56 52 62 55 61 61 64 64 58 67 67 72 70 70 64 70 79 85 88 88 88 89 89 89 88 89 90 88
47 47 49 51 54 54 54 56 58 59 59 60 61 63 65 64 65 71 67 68 74 76 84 76 71 78 78 84 89 91 92 90 87 89 90 91 90 90
53 53 54 54 50 55 59 61 63 65 66 67 67 64 66 71 73 74 80 74 72 83 77 74 80 86 88 92 92 94 91 89 89 93 93 92 91 92
58 58 58 59 60 59 61 62 64 66 67 69 68 69 67 70 77 77 76 79 84 87 84 85 90 92 93 97 94 92 93 93 94 95 94 92 91 93
68 64 61 61 63 65 70 68 64 64 67 65 65 71 72 75 77 84 86 87 84 82 83 86 85 86 92 93 90 91 94 97 97 95 94 93 93 91
52 56 90 65 69 82 76 71 66 64 66 70 73 76 77 76 79 84 81 75 82 82 82 85 87 90 91 92 93 95 97 97 97 97 95 94 92 87
77 77 75 78 78 77 78 67 66 70 73 73 79 82 83 80 79 80 82 86 89 90 90 94 97 97 97 99 100 98 99 99 100 99 96 90 85 78
71 72 83 80 82 84 79 74 74 71 73 77 80 80 80 81 81 82 84 88 91 92 93 96 100 100 99 99 100 101 102 103 101 96 91 85 74 66
77 83 77 71 70 67 63 64 67 69 73 72 73 76 79 81 83 85 88 91 93 95 97 99 100 99 99 100 104 104 102 98 95 87 78 72 62 56
77 67 65 64 64 65 65 67 70 71 74 79 83 85 88 89 88 89 90 91 93 94 96 99 102 104 105 106 105 103 100 90 82 73 67 62 53 47
59 61 62 64 67 69 73 76 78 81 81 83 84 85 86 88 89 91 93 95 97 100 104 107 109 110 110 107 104 91 84 80 73 63 56 50 44 40
60 62 65 69 73 77 80 80 81 82 83 85 86 86 88 90 93 96 99 103 105 107 108 108 107 104 100 96 90 82 75 69 63 55 47 38 36 34
68 69 72 74 76 77 77 79 80 81 83 85 88 91 94 98 102 104 105 105 104 103 101 99 96 93 90 87 83 76 67 58 53 43 37 33 33 31
70 70 71 74 75 77 80 81 84 87 89 93 96 98 101 101 98 97 95 96 95 93 92 89 87 86 84 80 74 65 57 50 45 35 30 30 30 27
Wind_Direction
256 256 256 255 259 263 265 269 272 274 276 276 279 283 279 281 283 285 288 282 279 275 284 290 292 289 288 289 290 293 295 296 297 297 298 298 300 302
252 255 259 260 259 263 265 268 272 278 278 283 281 277 276 283 283 285 286 281 281 281 282 283 287 287 289 290 293 294 299 301 300 301 301 300 300 302
258 258 259 260 266 267 268 272 274 277 278 279 281 284 284 296 284 280 284 276 284 275 281 281 283 287 291 291 294 292 299 302 301 302 302 301 302 302
266 268 271 274 276 277 279 278 276 275 277 277 281 290 288 286 291 275 279 284 282 282 277 283 282 296 290 292 293 290 301 303 303 304 305 303 302 301
282 282 277 275 272 274 274 274 280 280 277 284 286 285 290 288 290 287 281 281 283 276 279 277 282 295 284 289 286 292 301 302 304 303 302 303 302 307
274 276 279 275 275 277 279 277 280 281 282 287 285 286 289 289 290 284 285 284 274 289 273 277 272 287 288 278 281 294 303 305 305 307 305 306 306 303
275 277 276 276 274 276 276 278 278 278 276 285 286 286 286 288 289 284 286 283 282 290 286 286 279 279 285 276 284 299 304 305 303 304 305 305 306 306
274 275 275 273 275 276 278 279 277 275 276 276 280 283 283 287 283 289 290 276 288 287 289 292 279 277 277 277 288 295 306 303 303 304 303 304 305 307
277 277 280 279 280 281 281 280 278 280 282 284 283 286 290 290 287 286 284 285 289 286 288 289 279 279 280 281 290 296 300 302 303 303 304 304 306 307
276 281 283 283 283 279 279 281 282 282 281 279 284 284 286 282 284 291 276 281 282 290 286 283 280 287 286 289 289 300 301 302 302 301 303 305 306 305
277 279 284 287 288 285 283 280 281 282 282 282 283 284 286 281 287 280 281 283 284 280 287 278 275 284 282 290 300 301 301 300 300 301 304 305 304 303
277 278 281 283 285 285 283 282 282 282 284 284 287 281 286 286 286 283 285 281 283 282 285 275 274 280 283 294 300 300 298 299 299 302 304 304 302 304
277 278 280 279 279 282 283 281 280 280 282 283 283 285 284 278 284 284 283 283 280 283 280 279 282 284 292 296 296 296 298 299 300 301 301 301 302 302
276 273 281 279 275 282 286 278 278 278 281 282 281 281 283 283 285 285 283 278 282 278 282 287 290 292 293 294 296 298 298 299 299 299 300 301 302 302
265 273 269 271 275 291 283 274 277 279 284 284 284 283 282 284 283 283 277 276 285 289 291 292 294 296 295 297 296 296 297 298 299 300 300 300 300 301
275 278 280 281 281 281 284 276 279 279 283 285 283 278 278 278 277 274 278 286 289 291 293 294 295 295 295 295 296 297 297 298 298 298 299 299 298 299
276 275 281 282 280 279 278 275 280 278 277 275 274 273 275 278 285 286 286 288 289 290 292 291 291 292 293 294 295 296 296 297 297 296 295 296 297 296
276 275 274 274 273 272 272 274 273 273 273 278 282 284 284 287 289 289 289 289 288 288 289 290 290 291 292 293 294 294 295 295 295 296 295 294 294 291
273 267 268 269 267 269 272 275 278 284 285 284 287 290 291 292 291 291 290 290 289 290 290 290 291 293 294 295 295 295 295 294 293 294 292 291 289 282
270 273 275 276 278 281 284 286 287 288 290 291 291 290 290 289 290 290 290 290 291 292 292 293 293 293 294 294 295 295 295 294 293 291 286 284 279 273
275 276 280 280 282 286 288 289 290 290 289 288 288 288 289 289 290 290 291 291 292 293 293 293 294 294 295 295 295 294 291 289 287 286 280 273 266 249
283 284 284 283 284 285 287 288 289 290 291 291 292 292 292 292 292 293 292 293 293 293 293 293 294 294 295 295 294 292 289 283 281 278 269 258 247 242
283 284 285 287 289 289 290 290 290 291 293 293 293 293 294 293 293 293 294 293 293 294 295 296 296 295 294 292 291 290 285 278 271 266 250 240 234 215
Height
5724 5725 5727 5728 5727 5728 5728 5729 5727 5726 5727 5729 5730 5732 5728 5725 5723 5722 5720 5718 5716 5716 5713 5711 5709 5706 5702 5699 5695 5692 5688 5684 5681 5676 5672 5666 5661 5656
5717 5718 5719 5720 5721 5720 5720 5720 5718 5716 5715 5719 5718 5721 5719 5716 5712 5710 5707 5706 5704 5702 5700 5697 5694 5692 5689 5685 5681 5677 5674 5670 5665 5661 5656 5651 5646 5641
5710 5710 5711 5711 5710 5710 5710 5709 5708 5708 5706 5707 5707 5704 5702 5700 5698 5695 5695 5692 5691 5688 5686 5682 5679 5676 5673 5671 5667 5662 5659 5654 5648 5643 5639 5634 5629 5623
5702 5701 5702 5701 5701 5701 5700 5700 5700 5698 5697 5697 5697 5695 5690 5687 5685 5684 5682 5680 5677 5674 5672 5669 5666 5662 5657 5654 5650 5645 5642 5636 5632 5628 5622 5616 5611 5604
5693 5693 5694 5692 5691 5692 5691 5690 5690 5687 5686 5685 5684 5680 5679 5676 5672 5669 5668 5666 5662 5659 5657 5654 5650 5648 5643 5636 5631 5627 5624 5620 5614 5609 5603 5597 5591 5585
5684 5684 5683 5683 5682 5682 5681 5679 5678 5675 5673 5672 5670 5666 5664 5661 5657 5656 5654 5651 5648 5645 5642 5639 5636 5632 5628 5621 5616 5611 5607 5600 5594 5588 5584 5578 5571 5564
5676 5676 5675 5674 5672 5671 5667 5665 5664 5662 5660 5657 5655 5652 5651 5648 5645 5641 5639 5637 5633 5630 5628 5624 5621 5617 5614 5606 5599 5595 5589 5581 5575 5569 5563 5556 5549 5540
5667 5665 5664 5663 5662 5659 5656 5652 5650 5647 5646 5643 5640 5635 5634 5633 5631 5629 5625 5620 5617 5614 5610 5607 5604 5599 5596 5590 5585 5579 5569 5561 5554 5549 5542 5535 5527 5519
5653 5652 5651 5650 5649 5648 5644 5640 5637 5634 5631 5629 5626 5622 5620 5619 5617 5613 5610 5604 5601 5596 5594 5591 5585 5582 5578 5571 5565 5560 5551 5543 5533 5527 5521 5513 5505 5497
5637 5636 5634 5634 5633 5632 5631 5628 5624 5620 5618 5615 5611 5606 5605 5602 5600 5597 5591 5589 5583 5579 5577 5574 5568 5565 5559 5553 5545 5537 5529 5521 5512 5506 5500 5492 5483 5475
5625 5623 5622 5620 5617 5614 5613 5611 5608 5605 5603 5601 5597 5593 5590 5585 5581 5579 5573 5569 5566 5561 5557 5555 5551 5546 5542 5535 5524 5516 5508 5499 5489 5482 5477 5469 5460 5452
5612 5610 5608 5607 5603 5600 5596 5593 5590 5588 5586 5584 5582 5577 5573 5567 5563 5560 5554 5550 5548 5544 5540 5535 5531 5525 5523 5515 5504 5495 5489 5481 5472 5460 5453 5445 5436 5430
5597 5594 5592 5591 5589 5585 5581 5577 5573 5570 5568 5565 5562 5557 5554 5551 5546 5541 5537 5531 5527 5524 5519 5514 5509 5502 5496 5495 5487 5476 5467 5458 5450 5438 5429 5422 5415 5406
5577 5577 5576 5574 5571 5568 5564 5559 5555 5552 5549 5546 5543 5539 5534 5530 5525 5521 5515 5511 5506 5501 5495 5491 5486 5478 5474 5471 5465 5456 5445 5435 5427 5417 5405 5398 5391 5384
5551 5556 5554 5553 5551 5548 5541 5540 5537 5534 5531 5527 5523 5519 5514 5510 5506 5501 5495 5490 5486 5478 5471 5464 5458 5453 5450 5444 5442 5432 5423 5413 5401 5392 5380 5374 5367 5360
5547 5544 5542 5538 5534 5530 5525 5521 5518 5515 5511 5506 5502 5498 5493 5488 5484 5479 5474 5468 5463 5455 5446 5439 5433 5428 5424 5418 5412 5406 5394 5389 5381 5366 5356 5350 5343 5336
5526 5521 5520 5516 5512 5509 5505 5500 5496 5493 5489 5485 5480 5475 5471 5466 5461 5456 5450 5444 5439 5431 5423 5415 5409 5404 5399 5391 5385 5374 5367 5361 5352 5344 5331 5328 5324 5318
5503 5502 5499 5495 5491 5487 5483 5479 5475 5472 5468 5463 5459 5454 5449 5443 5437 5431 5425 5419 5413 5406 5400 5391 5383 5376 5372 5368 5353 5346 5339 5331 5324 5316 5307 5304 5305 5300
5483 5479 5477 5475 5472 5468 5464 5461 5457 5452 5446 5441 5436 5431 5426 5420 5412 5405 5399 5393 5387 5380 5373 5365 5355 5345 5342 5343 5335 5309 5305 5302 5298 5296 5286 5281 5284 5283
5465 5463 5460 5456 5453 5449 5444 5439 5435 5431 5425 5418 5413 5406 5399 5393 5386 5379 5372 5365 5358 5351 5344 5334 5324 5313 5305 5304 5303 5295 5275 5271 5270 5273 5267 5266 5264 5265
5446 5442 5438 5434 5431 5426 5422 5416 5411 5406 5401 5394 5388 5381 5374 5367 5359 5351 5343 5335 5326 5318 5310 5302 5291 5280 5271 5266 5266 5266 5259 5248 5245 5250 5249 5251 5249 5250
5424 5421 5417 5412 5408 5403 5398 5392 5386 5381 5375 5367 5361 5354 5346 5338 5330 5322 5312 5302 5293 5284 5276 5268 5259 5251 5243 5236 5235 5234 5232 5227 5224 5230 5233 5236 5237 5240
5404 5400 5396 5390 5383 5378 5373 5368 5361 5354 5346 5340 5332 5323 5316 5309 5298 5289 5279 5270 5261 5253 5244 5238 5231 5223 5216 5211 5207 5208 5206 5206 5207 5212 5216 5221 5225 5231